Year,Month,Day,Hour,Minute,Value (Times are PST for temperature in C)
2007,05,22,00,00,9.40
2007,05,22,00,01,9.40
2007,05,22,00,02,9.40
2007,05,22,00,03,9.40
2007,05,22,00,04,9.40
2007,05,22,00,05,9.40
2007,05,22,00,06,9.40
2007,05,22,00,07,9.40
2007,05,22,00,08,9.40
2007,05,22,00,09,9.40
2007,05,22,00,10,9.40
2007,05,22,00,11,9.40
2007,05,22,00,12,9.40
2007,05,22,00,13,9.40
2007,05,22,00,14,9.40
2007,05,22,00,15,9.40
2007,05,22,00,16,9.40
2007,05,22,03,02,8.80
2007,05,22,03,03,8.80
2007,05,22,03,04,8.80
2007,05,22,03,05,8.80
2007,05,22,03,06,8.80
2007,05,22,03,07,8.80
2007,05,22,03,08,8.80
2007,05,22,03,09,8.80
2007,05,22,03,10,8.80
2007,05,22,03,11,8.80
2007,05,22,03,12,8.80
2007,05,22,03,13,8.80
2007,05,22,03,14,8.80
2007,05,22,03,15,8.80
2007,05,22,03,16,8.80
2007,05,22,03,17,8.80
2007,05,22,03,18,8.80
2007,05,22,03,19,8.80
2007,05,22,03,20,8.80
2007,05,22,03,21,8.80
2007,05,22,03,22,8.80
2007,05,22,03,23,8.80
2007,05,22,03,24,8.80
2007,05,22,03,25,8.80
2007,05,22,03,26,8.80
2007,05,22,03,27,8.80
2007,05,22,03,28,8.80
2007,05,22,03,29,8.80
2007,05,22,03,30,8.70
2007,05,22,03,31,8.70
2007,05,22,03,32,8.70
2007,05,22,03,33,8.70
2007,05,22,03,34,8.70
2007,05,22,03,35,8.70
2007,05,22,03,36,8.60
2007,05,22,03,37,8.60
2007,05,22,03,38,8.60
2007,05,22,03,39,8.60
2007,05,22,03,40,8.60
2007,05,22,03,41,8.60
2007,05,22,03,42,8.60
2007,05,22,03,43,8.60
2007,05,22,03,44,8.60
2007,05,22,03,45,8.60
2007,05,22,03,46,8.60
2007,05,22,03,47,8.50
2007,05,22,03,48,8.50
2007,05,22,03,49,8.50
2007,05,22,03,50,8.40
2007,05,22,03,51,8.40
2007,05,22,03,52,8.30
2007,05,22,03,53,8.30
2007,05,22,03,54,8.20
2007,05,22,03,55,8.20
2007,05,22,03,56,8.20
2007,05,22,03,57,8.20
2007,05,22,03,58,8.20
2007,05,22,03,59,8.20
2007,05,22,04,00,8.20
2007,05,22,04,01,8.10
2007,05,22,04,02,8.20
2007,05,22,04,03,8.20
2007,05,22,04,04,8.20
2007,05,22,04,05,8.10
2007,05,22,04,06,8.10
2007,05,22,04,07,8.10
2007,05,22,04,08,8.00
2007,05,22,04,09,8.00
2007,05,22,04,10,8.00
2007,05,22,04,11,7.90
2007,05,22,04,12,7.90
2007,05,22,04,13,7.80
2007,05,22,04,14,7.80
2007,05,22,04,15,7.70
2007,05,22,04,16,7.70
2007,05,22,04,17,7.60
2007,05,22,04,18,7.60
2007,05,22,04,19,7.60
2007,05,22,04,20,7.50
2007,05,22,04,21,7.50
2007,05,22,04,22,7.50
2007,05,22,04,23,7.40
2007,05,22,04,24,7.40
2007,05,22,04,25,7.40
2007,05,22,04,26,7.40
2007,05,22,04,27,7.40
2007,05,22,04,28,7.40
2007,05,22,04,29,7.40
2007,05,22,04,30,7.30
2007,05,22,04,31,7.30
2007,05,22,04,32,7.30
2007,05,22,04,33,7.30
2007,05,22,04,34,7.30
2007,05,22,04,35,7.20
2007,05,22,04,36,7.20
2007,05,22,04,37,7.20
2007,05,22,04,38,7.10
2007,05,22,04,39,7.10
2007,05,22,04,40,7.10
2007,05,22,04,41,7.10
2007,05,22,04,42,7.00
2007,05,22,04,43,7.00
2007,05,22,04,44,7.00
2007,05,22,04,45,7.00
2007,05,22,04,46,7.00
2007,05,22,04,47,7.00
2007,05,22,04,48,7.00
2007,05,22,04,49,7.00
2007,05,22,04,50,7.00
2007,05,22,04,51,7.00
2007,05,22,04,52,7.00
2007,05,22,04,53,6.90
2007,05,22,04,54,6.90
2007,05,22,04,55,6.90
2007,05,22,04,56,6.90
2007,05,22,04,57,6.90
2007,05,22,04,58,6.80
2007,05,22,04,59,6.80
2007,05,22,05,00,6.80
2007,05,22,05,01,6.80
2007,05,22,05,02,6.80
2007,05,22,05,03,6.80
2007,05,22,05,04,6.80
2007,05,22,05,05,6.80
2007,05,22,05,06,6.80
2007,05,22,05,07,6.80
2007,05,22,05,08,6.80
2007,05,22,05,09,6.80
2007,05,22,05,10,6.80
2007,05,22,05,11,6.70
2007,05,22,05,12,6.70
2007,05,22,05,13,6.60
2007,05,22,05,14,6.60
2007,05,22,05,15,6.60
2007,05,22,05,16,6.60
2007,05,22,05,17,6.60
2007,05,22,05,18,6.50
2007,05,22,05,19,6.40
2007,05,22,05,20,6.40
2007,05,22,05,21,6.40
2007,05,22,05,22,6.40
2007,05,22,05,23,6.40
2007,05,22,05,24,6.40
2007,05,22,05,25,6.40
2007,05,22,05,26,6.40
2007,05,22,05,27,6.40
2007,05,22,05,28,6.40
2007,05,22,05,29,6.30
2007,05,22,05,30,6.30
2007,05,22,05,31,6.30
2007,05,22,05,32,6.30
2007,05,22,05,33,6.30
2007,05,22,05,34,6.30
2007,05,22,05,35,6.30
2007,05,22,05,36,6.30
2007,05,22,05,37,6.30
2007,05,22,05,38,6.30
2007,05,22,05,39,6.30
2007,05,22,05,40,6.30
2007,05,22,05,41,6.20
2007,05,22,05,42,6.20
2007,05,22,05,43,6.20
2007,05,22,05,44,6.20
2007,05,22,05,45,6.20
2007,05,22,05,46,6.20
2007,05,22,05,47,6.20
2007,05,22,05,48,6.20
2007,05,22,05,49,6.20
2007,05,22,05,50,6.20
2007,05,22,05,51,6.20
2007,05,22,05,52,6.20
2007,05,22,05,53,6.20
2007,05,22,05,54,6.20
2007,05,22,05,55,6.20
2007,05,22,05,56,6.20
2007,05,22,05,57,6.20
2007,05,22,05,58,6.20
2007,05,22,05,59,6.20
2007,05,22,06,00,6.20
2007,05,22,06,01,6.20
2007,05,22,06,02,6.20
2007,05,22,06,03,6.20
2007,05,22,06,04,6.20
2007,05,22,06,05,6.20
2007,05,22,06,06,6.20
2007,05,22,06,07,6.20
2007,05,22,06,08,6.20
2007,05,22,06,09,6.20
2007,05,22,06,10,6.20
2007,05,22,06,11,6.20
2007,05,22,06,12,6.20
2007,05,22,06,13,6.20
2007,05,22,06,14,6.20
2007,05,22,06,15,6.20
2007,05,22,06,16,6.30
2007,05,22,06,17,6.30
2007,05,22,06,18,6.30
2007,05,22,06,19,6.30
2007,05,22,06,20,6.30
2007,05,22,06,21,6.30
2007,05,22,06,22,6.30
2007,05,22,06,23,6.30
2007,05,22,06,24,6.30
2007,05,22,06,25,6.40
2007,05,22,06,26,6.40
2007,05,22,06,27,6.40
2007,05,22,06,28,6.40
2007,05,22,06,29,6.40
2007,05,22,06,30,6.40
2007,05,22,06,31,6.50
2007,05,22,06,32,6.60
2007,05,22,06,33,6.60
2007,05,22,06,34,6.60
2007,05,22,06,35,6.60
2007,05,22,06,36,6.70
2007,05,22,06,37,6.70
2007,05,22,06,38,6.80
2007,05,22,06,39,6.80
2007,05,22,06,40,6.80
2007,05,22,06,41,6.80
2007,05,22,06,42,6.80
2007,05,22,06,43,6.80
2007,05,22,06,44,6.90
2007,05,22,06,45,6.90
2007,05,22,06,46,6.90
2007,05,22,06,47,7.00
2007,05,22,06,48,7.00
2007,05,22,06,49,7.00
2007,05,22,06,50,7.00
2007,05,22,06,51,7.00
2007,05,22,06,52,7.10
2007,05,22,06,53,7.10
2007,05,22,06,54,7.10
2007,05,22,06,55,7.10
2007,05,22,06,56,7.10
2007,05,22,06,57,7.20
2007,05,22,06,58,7.20
2007,05,22,06,59,7.20
2007,05,22,07,00,7.30
2007,05,22,07,01,7.30
2007,05,22,07,02,7.30
2007,05,22,07,03,7.30
2007,05,22,07,04,7.30
2007,05,22,07,05,7.30
2007,05,22,07,06,7.40
2007,05,22,07,07,7.40
2007,05,22,07,08,7.40
2007,05,22,07,09,7.50
2007,05,22,07,10,7.50
2007,05,22,07,11,7.50
2007,05,22,07,12,7.60
2007,05,22,07,13,7.60
2007,05,22,07,14,7.60
2007,05,22,07,15,7.70
2007,05,22,07,16,7.70
2007,05,22,07,17,7.80
2007,05,22,07,18,7.80
2007,05,22,07,19,7.80
2007,05,22,07,20,7.80
2007,05,22,07,21,7.90
2007,05,22,07,22,7.90
2007,05,22,07,23,8.00
2007,05,22,07,24,8.10
2007,05,22,07,25,8.10
2007,05,22,07,26,8.20
2007,05,22,07,27,8.20
2007,05,22,07,28,8.30
2007,05,22,07,29,8.30
2007,05,22,07,30,8.40
2007,05,22,07,31,8.50
2007,05,22,07,32,8.50
2007,05,22,07,33,8.60
2007,05,22,07,34,8.70
2007,05,22,07,35,8.70
2007,05,22,07,36,8.80
2007,05,22,07,37,8.90
2007,05,22,07,38,8.90
2007,05,22,07,39,9.00
2007,05,22,07,40,9.00
2007,05,22,07,41,9.10
2007,05,22,07,42,9.20
2007,05,22,07,43,9.20
2007,05,22,07,44,9.30
2007,05,22,07,45,9.30
2007,05,22,07,46,9.40
2007,05,22,07,47,9.40
2007,05,22,07,48,9.50
2007,05,22,07,49,9.50
2007,05,22,07,50,9.60
2007,05,22,07,51,9.70
2007,05,22,07,52,9.70
2007,05,22,07,53,9.70
2007,05,22,07,54,9.80
2007,05,22,07,55,9.90
2007,05,22,07,56,9.90
2007,05,22,07,57,10.00
2007,05,22,07,58,10.10
2007,05,22,07,59,10.10
2007,05,22,08,00,10.10
2007,05,22,08,01,10.10
2007,05,22,08,02,10.10
2007,05,22,08,03,10.20
2007,05,22,08,04,10.20
2007,05,22,08,05,10.20
2007,05,22,08,06,10.20
2007,05,22,08,07,10.30
2007,05,22,08,08,10.30
2007,05,22,08,09,10.30
2007,05,22,08,10,10.40
2007,05,22,08,11,10.40
2007,05,22,08,12,10.40
2007,05,22,08,13,10.40
2007,05,22,08,14,10.40
2007,05,22,08,15,10.40
2007,05,22,08,16,10.50
2007,05,22,08,17,10.60
2007,05,22,08,18,10.60
2007,05,22,08,19,10.60
2007,05,22,08,20,10.60
2007,05,22,08,21,10.70
2007,05,22,08,22,10.80
2007,05,22,08,23,10.90
2007,05,22,08,24,10.90
2007,05,22,08,25,11.00
2007,05,22,08,26,11.10
2007,05,22,08,27,11.10
2007,05,22,08,28,11.10
2007,05,22,08,29,11.20
2007,05,22,08,30,11.20
2007,05,22,08,31,11.30
2007,05,22,08,32,11.40
2007,05,22,08,33,11.40
2007,05,22,08,34,11.40
2007,05,22,08,35,11.50
2007,05,22,08,36,11.60
2007,05,22,08,37,11.60
2007,05,22,08,38,11.70
2007,05,22,08,39,11.70
2007,05,22,08,40,11.80
2007,05,22,08,41,11.80
2007,05,22,08,42,11.90
2007,05,22,08,43,11.90
2007,05,22,08,44,12.00
2007,05,22,08,45,12.00
2007,05,22,08,46,12.10
2007,05,22,08,47,12.10
2007,05,22,08,48,12.20
2007,05,22,08,49,12.30
2007,05,22,08,50,12.30
2007,05,22,08,51,12.30
2007,05,22,08,52,12.40
2007,05,22,08,53,12.40
2007,05,22,08,54,12.30
2007,05,22,08,55,12.30
2007,05,22,08,56,12.30
2007,05,22,08,57,12.30
2007,05,22,08,58,12.30
2007,05,22,08,59,12.30
2007,05,22,09,00,12.30
2007,05,22,09,01,12.30
2007,05,22,09,02,12.30
2007,05,22,09,03,12.20
2007,05,22,09,04,12.10
2007,05,22,09,05,12.00
2007,05,22,09,06,12.00
2007,05,22,09,07,11.90
2007,05,22,09,08,11.90
2007,05,22,09,09,11.80
2007,05,22,09,10,11.80
2007,05,22,09,11,11.80
2007,05,22,09,12,11.80
2007,05,22,09,13,11.80
2007,05,22,09,14,11.80
2007,05,22,09,15,11.90
2007,05,22,09,16,11.90
2007,05,22,09,17,11.90
2007,05,22,09,18,12.00
2007,05,22,09,19,12.00
2007,05,22,09,20,12.00
2007,05,22,09,21,12.10
2007,05,22,09,22,12.10
2007,05,22,09,23,12.20
2007,05,22,09,24,12.20
2007,05,22,09,25,12.30
2007,05,22,09,26,12.30
2007,05,22,09,27,12.40
2007,05,22,09,28,12.40
2007,05,22,09,29,12.50
2007,05,22,09,30,12.60
2007,05,22,09,31,12.60
2007,05,22,09,32,12.60
2007,05,22,09,33,12.70
2007,05,22,09,34,12.80
2007,05,22,09,35,12.80
2007,05,22,09,36,12.80
2007,05,22,09,37,12.80
2007,05,22,09,38,12.80
2007,05,22,09,39,12.60
2007,05,22,09,40,12.60
2007,05,22,09,41,12.50
2007,05,22,09,42,12.60
2007,05,22,09,43,12.70
2007,05,22,09,44,12.80
2007,05,22,09,45,12.90
2007,05,22,09,46,13.00
2007,05,22,09,47,13.10
2007,05,22,09,48,13.20
2007,05,22,09,49,13.30
2007,05,22,09,50,13.30
2007,05,22,09,51,13.40
2007,05,22,09,52,13.50
2007,05,22,09,53,13.50
2007,05,22,09,54,13.40
2007,05,22,09,55,13.30
2007,05,22,09,56,13.30
2007,05,22,09,57,13.30
2007,05,22,09,58,13.30
2007,05,22,09,59,13.30
2007,05,22,10,00,13.30
2007,05,22,10,01,13.30
2007,05,22,10,02,13.40
2007,05,22,10,03,13.50
2007,05,22,10,04,13.60
2007,05,22,10,05,13.70
2007,05,22,10,06,13.70
2007,05,22,10,07,13.90
2007,05,22,10,08,13.90
2007,05,22,10,09,13.90
2007,05,22,10,10,13.90
2007,05,22,10,11,13.80
2007,05,22,10,12,13.80
2007,05,22,10,13,13.80
2007,05,22,10,14,13.80
2007,05,22,10,15,13.80
2007,05,22,10,16,13.80
2007,05,22,10,17,13.90
2007,05,22,10,18,14.10
2007,05,22,10,19,14.20
2007,05,22,10,20,14.30
2007,05,22,10,21,14.40
2007,05,22,10,22,14.40
2007,05,22,10,23,14.30
2007,05,22,10,24,14.20
2007,05,22,10,25,14.20
2007,05,22,10,26,14.10
2007,05,22,10,27,14.10
2007,05,22,10,28,14.20
2007,05,22,10,29,14.20
2007,05,22,10,30,14.10
2007,05,22,10,31,14.00
2007,05,22,10,32,14.00
2007,05,22,10,33,14.00
2007,05,22,10,34,14.00
2007,05,22,10,35,13.90
2007,05,22,10,36,13.90
2007,05,22,10,37,13.90
2007,05,22,10,38,14.00
2007,05,22,10,39,13.90
2007,05,22,10,40,13.90
2007,05,22,10,41,13.90
2007,05,22,10,42,13.80
2007,05,22,10,43,13.70
2007,05,22,10,44,13.70
2007,05,22,10,45,13.70
2007,05,22,10,46,13.90
2007,05,22,10,47,13.90
2007,05,22,10,48,13.80
2007,05,22,10,49,13.60
2007,05,22,10,50,13.50
2007,05,22,10,51,13.30
2007,05,22,10,52,13.30
2007,05,22,10,53,13.30
2007,05,22,10,54,13.30
2007,05,22,10,55,13.10
2007,05,22,10,56,12.90
2007,05,22,10,57,12.80
2007,05,22,10,58,12.60
2007,05,22,10,59,12.50
2007,05,22,11,00,12.50
2007,05,22,11,01,12.40
2007,05,22,11,02,12.40
2007,05,22,11,03,12.40
2007,05,22,11,04,12.40
2007,05,22,11,05,12.50
2007,05,22,11,06,12.50
2007,05,22,11,07,12.50
2007,05,22,11,08,12.60
2007,05,22,11,09,12.70
2007,05,22,11,10,12.70
2007,05,22,11,11,12.80
2007,05,22,11,12,13.00
2007,05,22,11,13,13.20
2007,05,22,11,14,13.30
2007,05,22,11,15,13.50
2007,05,22,11,16,13.50
2007,05,22,11,17,13.60
2007,05,22,11,18,13.60
2007,05,22,11,19,13.60
2007,05,22,11,20,13.70
2007,05,22,11,21,13.70
2007,05,22,11,22,13.70
2007,05,22,11,23,13.60
2007,05,22,11,24,13.50
2007,05,22,11,25,13.40
2007,05,22,11,26,13.30
2007,05,22,11,27,13.20
2007,05,22,11,28,13.10
2007,05,22,11,29,13.10
2007,05,22,11,30,13.20
2007,05,22,11,31,13.30
2007,05,22,11,32,13.40
2007,05,22,11,33,13.50
2007,05,22,11,34,13.60
2007,05,22,11,35,13.60
2007,05,22,11,36,13.60
2007,05,22,11,37,13.60
2007,05,22,11,38,13.60
2007,05,22,11,39,13.60
2007,05,22,11,40,13.50
2007,05,22,11,41,13.40
2007,05,22,11,42,13.30
2007,05,22,11,43,13.30
2007,05,22,11,44,13.30
2007,05,22,11,45,13.20
2007,05,22,11,46,13.10
2007,05,22,11,47,13.20
2007,05,22,11,48,13.30
2007,05,22,11,49,13.30
2007,05,22,11,50,13.30
2007,05,22,11,51,13.40
2007,05,22,11,52,13.40
2007,05,22,11,53,13.40
2007,05,22,11,54,13.30
2007,05,22,11,55,13.00
2007,05,22,11,56,12.90
2007,05,22,11,57,12.90
2007,05,22,11,58,13.10
2007,05,22,11,59,13.20
2007,05,22,12,00,13.40
2007,05,22,12,01,13.60
2007,05,22,12,02,13.60
2007,05,22,12,03,13.70
2007,05,22,12,04,13.70
2007,05,22,12,05,13.60
2007,05,22,12,06,13.50
2007,05,22,12,07,13.30
2007,05,22,12,08,13.50
2007,05,22,12,09,13.60
2007,05,22,12,10,13.70
2007,05,22,12,11,13.80
2007,05,22,12,12,13.90
2007,05,22,12,13,14.10
2007,05,22,12,14,14.20
2007,05,22,12,15,14.30
2007,05,22,12,16,14.50
2007,05,22,12,17,14.40
2007,05,22,12,18,14.20
2007,05,22,12,19,14.00
2007,05,22,12,20,14.00
2007,05,22,12,21,13.90
2007,05,22,12,22,13.90
2007,05,22,12,23,13.80
2007,05,22,12,24,13.70
2007,05,22,12,25,13.70
2007,05,22,12,26,13.80
2007,05,22,12,27,13.70
2007,05,22,12,28,13.80
2007,05,22,12,29,13.90
2007,05,22,12,30,13.80
2007,05,22,12,31,13.80
2007,05,22,12,32,13.90
2007,05,22,12,33,13.90
2007,05,22,12,34,14.00
2007,05,22,12,35,13.90
2007,05,22,12,36,13.90
2007,05,22,12,37,13.80
2007,05,22,12,38,13.80
2007,05,22,12,39,13.70
2007,05,22,12,40,13.70
2007,05,22,12,41,13.70
2007,05,22,12,42,13.90
2007,05,22,12,43,14.00
2007,05,22,12,44,14.20
2007,05,22,12,45,14.30
2007,05,22,12,46,14.40
2007,05,22,12,47,14.40
2007,05,22,12,48,14.30
2007,05,22,12,49,14.20
2007,05,22,12,50,14.20
2007,05,22,12,51,14.10
2007,05,22,12,52,14.20
2007,05,22,12,53,14.20
2007,05,22,12,54,14.00
2007,05,22,12,55,14.00
2007,05,22,12,56,14.00
2007,05,22,12,57,13.90
2007,05,22,12,58,13.90
2007,05,22,12,59,14.10
2007,05,22,13,00,14.00
2007,05,22,13,01,13.90
2007,05,22,13,02,13.90
2007,05,22,13,03,14.00
2007,05,22,13,04,14.10
2007,05,22,13,05,14.10
2007,05,22,13,06,13.90
2007,05,22,13,07,13.90
2007,05,22,13,08,14.00
2007,05,22,13,09,14.00
2007,05,22,13,10,14.10
2007,05,22,13,11,14.10
2007,05,22,13,12,14.10
2007,05,22,13,13,14.20
2007,05,22,13,14,14.20
2007,05,22,13,15,14.20
2007,05,22,13,16,14.20
2007,05,22,13,17,14.30
2007,05,22,13,18,14.20
2007,05,22,13,19,14.10
2007,05,22,13,20,13.90
2007,05,22,13,21,13.80
2007,05,22,13,22,13.80
2007,05,22,13,23,13.90
2007,05,22,13,24,14.10
2007,05,22,13,25,14.20
2007,05,22,13,26,14.20
2007,05,22,13,27,14.20
2007,05,22,13,28,14.10
2007,05,22,13,29,14.10
2007,05,22,13,30,14.10
2007,05,22,13,31,14.20
2007,05,22,13,32,14.20
2007,05,22,13,33,14.20
2007,05,22,13,34,14.20
2007,05,22,13,35,14.30
2007,05,22,13,36,14.30
2007,05,22,13,37,14.20
2007,05,22,13,38,14.10
2007,05,22,13,39,14.10
2007,05,22,13,40,14.10
2007,05,22,13,41,14.10
2007,05,22,13,42,14.10
2007,05,22,13,43,14.30
2007,05,22,13,44,14.20
2007,05,22,13,45,14.10
2007,05,22,13,46,14.00
2007,05,22,13,47,14.00
2007,05,22,13,48,14.10
2007,05,22,13,49,14.20
2007,05,22,13,50,14.30
2007,05,22,13,51,14.40
2007,05,22,13,52,14.30
2007,05,22,13,53,14.20
2007,05,22,13,54,14.20
2007,05,22,13,55,14.20
2007,05,22,13,56,14.20
2007,05,22,13,57,14.20
2007,05,22,13,58,14.20
2007,05,22,13,59,14.20
2007,05,22,14,00,14.20
2007,05,22,14,01,14.20
2007,05,22,14,02,14.20
2007,05,22,14,03,14.40
2007,05,22,14,04,14.40
2007,05,22,14,05,14.50
2007,05,22,14,06,14.50
2007,05,22,14,07,14.40
2007,05,22,14,08,14.30
2007,05,22,14,09,14.20
2007,05,22,14,10,14.20
2007,05,22,14,11,14.20
2007,05,22,14,12,14.20
2007,05,22,14,13,14.40
2007,05,22,14,14,14.60
2007,05,22,14,15,14.60
2007,05,22,14,16,14.70
2007,05,22,14,17,14.70
2007,05,22,14,18,14.80
2007,05,22,14,19,14.70
2007,05,22,14,20,14.40
2007,05,22,14,21,14.30
2007,05,22,14,22,14.20
2007,05,22,14,23,14.20
2007,05,22,14,24,14.30
2007,05,22,14,25,14.30
2007,05,22,14,26,14.30
2007,05,22,14,27,14.50
2007,05,22,14,28,14.50
2007,05,22,14,29,14.60
2007,05,22,14,30,14.60
2007,05,22,14,31,14.70
2007,05,22,14,32,14.80
2007,05,22,14,33,14.80
2007,05,22,14,34,14.90
2007,05,22,14,35,15.00
2007,05,22,14,36,15.00
2007,05,22,14,37,15.00
2007,05,22,14,38,14.90
2007,05,22,14,39,14.60
2007,05,22,14,40,14.50
2007,05,22,14,41,14.50
2007,05,22,14,42,14.40
2007,05,22,14,43,14.40
2007,05,22,14,44,14.30
2007,05,22,14,45,14.30
2007,05,22,14,46,14.40
2007,05,22,14,47,14.40
2007,05,22,14,48,14.30
2007,05,22,14,49,14.30
2007,05,22,14,50,14.20
2007,05,22,14,51,14.30
2007,05,22,14,52,14.40
2007,05,22,14,53,14.50
2007,05,22,14,54,14.50
2007,05,22,14,55,14.50
2007,05,22,14,56,14.50
2007,05,22,14,57,14.30
2007,05,22,14,58,14.30
2007,05,22,14,59,14.20
2007,05,22,15,00,14.20
2007,05,22,15,01,14.20
2007,05,22,15,02,14.20
2007,05,22,15,03,14.30
2007,05,22,15,04,14.40
2007,05,22,15,05,14.50
2007,05,22,15,06,14.60
2007,05,22,15,07,14.60
2007,05,22,15,08,14.80
2007,05,22,15,09,14.90
2007,05,22,15,10,14.80
2007,05,22,15,11,14.80
2007,05,22,15,12,14.90
2007,05,22,15,13,15.00
2007,05,22,15,14,15.00
2007,05,22,15,15,15.10
2007,05,22,15,16,15.30
2007,05,22,15,17,15.20
2007,05,22,15,18,15.20
2007,05,22,15,19,15.20
2007,05,22,15,20,15.30
2007,05,22,15,21,15.30
2007,05,22,15,22,15.30
2007,05,22,15,23,15.30
2007,05,22,15,24,15.40
2007,05,22,15,25,15.50
2007,05,22,15,26,15.50
2007,05,22,15,27,15.50
2007,05,22,15,28,15.60
2007,05,22,15,29,15.60
2007,05,22,15,30,15.60
2007,05,22,15,31,15.60
2007,05,22,15,32,15.60
2007,05,22,15,33,15.60
2007,05,22,15,34,15.70
2007,05,22,15,35,15.70
2007,05,22,15,36,15.70
2007,05,22,15,37,15.80
2007,05,22,15,38,15.90
2007,05,22,15,39,16.00
2007,05,22,15,40,16.10
2007,05,22,15,41,16.10
2007,05,22,15,42,16.20
2007,05,22,15,43,16.20
2007,05,22,15,44,16.30
2007,05,22,15,45,16.30
2007,05,22,15,46,16.30
2007,05,22,15,47,16.40
2007,05,22,15,48,16.50
2007,05,22,15,49,16.70
2007,05,22,15,50,16.80
2007,05,22,15,51,17.00
2007,05,22,15,52,17.10
2007,05,22,15,53,17.30
2007,05,22,15,54,17.40
2007,05,22,15,55,17.40
2007,05,22,15,56,17.60
2007,05,22,15,57,17.70
2007,05,22,15,58,17.80
2007,05,22,15,59,17.90
2007,05,22,16,00,18.00
2007,05,22,16,01,18.10
2007,05,22,16,02,18.20
2007,05,22,16,03,18.20
2007,05,22,16,04,18.20
2007,05,22,16,05,18.20
2007,05,22,16,06,18.20
2007,05,22,16,07,18.30
2007,05,22,16,08,18.40
2007,05,22,16,09,18.30
2007,05,22,16,10,18.20
2007,05,22,16,11,18.10
2007,05,22,16,12,18.00
2007,05,22,16,13,17.90
2007,05,22,16,14,17.80
2007,05,22,16,15,17.70
2007,05,22,16,16,17.60
2007,05,22,16,17,17.60
2007,05,22,16,18,17.70
2007,05,22,16,19,17.70
2007,05,22,16,20,17.70
2007,05,22,16,21,17.70
2007,05,22,16,22,17.80
2007,05,22,16,23,17.80
2007,05,22,16,24,17.90
2007,05,22,16,25,17.90
2007,05,22,16,26,18.00
2007,05,22,16,27,18.10
2007,05,22,16,28,18.10
2007,05,22,16,29,18.20
2007,05,22,16,30,18.30
2007,05,22,16,31,18.40
2007,05,22,16,32,18.30
2007,05,22,16,33,18.30
2007,05,22,16,34,18.30
2007,05,22,16,35,18.30
2007,05,22,16,36,18.30
2007,05,22,16,37,18.30
2007,05,22,16,38,18.20
2007,05,22,16,39,18.20
2007,05,22,16,40,18.20
2007,05,22,16,41,18.20
2007,05,22,16,42,18.20
2007,05,22,16,43,18.20
2007,05,22,16,44,18.10
2007,05,22,16,45,18.00
2007,05,22,16,46,17.90
2007,05,22,16,47,17.90
2007,05,22,16,48,17.90
2007,05,22,16,49,17.90
2007,05,22,16,50,17.90
2007,05,22,16,51,17.80
2007,05,22,16,52,17.80
2007,05,22,16,53,17.70
2007,05,22,16,54,17.60
2007,05,22,16,55,17.50
2007,05,22,16,56,17.40
2007,05,22,16,57,17.40
2007,05,22,16,58,17.50
2007,05,22,16,59,17.50
2007,05,22,17,00,17.60
2007,05,22,17,01,17.50
2007,05,22,17,02,17.60
2007,05,22,17,03,17.70
2007,05,22,17,04,17.70
2007,05,22,17,05,17.80
2007,05,22,17,06,17.80
2007,05,22,17,07,17.80
2007,05,22,17,08,17.90
2007,05,22,17,09,17.90
2007,05,22,17,10,17.90
2007,05,22,17,11,17.90
2007,05,22,17,12,17.90
2007,05,22,17,13,18.10
2007,05,22,17,14,18.20
2007,05,22,17,15,18.20
2007,05,22,17,16,18.20
2007,05,22,17,17,18.30
2007,05,22,17,18,18.20
2007,05,22,17,19,18.20
2007,05,22,17,20,18.20
2007,05,22,17,21,18.10
2007,05,22,17,22,18.00
2007,05,22,17,23,17.90
2007,05,22,17,24,17.90
2007,05,22,17,25,17.90
2007,05,22,17,26,17.90
2007,05,22,17,27,17.90
2007,05,22,17,28,17.90
2007,05,22,17,29,17.90
2007,05,22,17,30,17.90
2007,05,22,17,31,17.90
2007,05,22,17,32,17.90
2007,05,22,17,33,17.90
2007,05,22,17,34,17.80
2007,05,22,17,35,17.80
2007,05,22,17,36,17.80
2007,05,22,17,37,17.90
2007,05,22,17,38,18.00
2007,05,22,17,39,18.10
2007,05,22,17,40,18.20
2007,05,22,17,41,18.20
2007,05,22,17,42,18.20
2007,05,22,17,43,18.20
2007,05,22,17,44,18.10
2007,05,22,17,45,18.00
2007,05,22,17,46,17.90
2007,05,22,17,47,17.90
2007,05,22,17,48,17.90
2007,05,22,17,49,17.90
2007,05,22,17,50,17.90
2007,05,22,17,51,17.80
2007,05,22,17,52,17.80
2007,05,22,17,53,17.70
2007,05,22,17,54,17.70
2007,05,22,17,55,17.80
2007,05,22,17,56,17.90
2007,05,22,17,57,17.90
2007,05,22,17,58,17.90
2007,05,22,17,59,17.90
2007,05,22,18,00,18.00
2007,05,22,18,01,17.90
2007,05,22,18,02,17.90
2007,05,22,18,03,17.80
2007,05,22,18,04,17.80
2007,05,22,18,05,17.80
2007,05,22,18,06,17.90
2007,05,22,18,07,17.90
2007,05,22,18,08,17.90
2007,05,22,18,09,18.10
2007,05,22,18,10,18.10
2007,05,22,18,11,18.20
2007,05,22,18,12,18.20
2007,05,22,18,13,18.10
2007,05,22,18,14,17.90
2007,05,22,18,15,17.90
2007,05,22,18,16,17.80
2007,05,22,18,17,17.80
2007,05,22,18,18,17.90
2007,05,22,18,19,17.90
2007,05,22,18,20,17.90
2007,05,22,18,21,17.90
2007,05,22,18,22,17.80
2007,05,22,18,23,17.80
2007,05,22,18,24,17.80
2007,05,22,18,25,17.80
2007,05,22,18,26,17.70
2007,05,22,18,27,17.70
2007,05,22,18,28,17.60
2007,05,22,18,29,17.50
2007,05,22,18,30,17.50
2007,05,22,18,31,17.50
2007,05,22,18,32,17.50
2007,05,22,18,33,17.60
2007,05,22,18,34,17.60
2007,05,22,18,35,17.60
2007,05,22,18,36,17.60
2007,05,22,18,37,17.60
2007,05,22,18,38,17.60
2007,05,22,18,39,17.70
2007,05,22,18,40,17.60
2007,05,22,18,41,17.50
2007,05,22,18,42,17.50
2007,05,22,18,43,17.50
2007,05,22,18,44,17.40
2007,05,22,18,45,17.40
2007,05,22,18,46,17.50
2007,05,22,18,47,17.50
2007,05,22,18,48,17.50
2007,05,22,18,49,17.50
2007,05,22,18,50,17.40
2007,05,22,18,51,17.30
2007,05,22,18,52,17.30
2007,05,22,18,53,17.20
2007,05,22,18,54,17.20
2007,05,22,18,55,17.20
2007,05,22,18,56,17.20
2007,05,22,18,57,17.10
2007,05,22,18,58,17.00
2007,05,22,18,59,16.90
2007,05,22,19,00,16.90
2007,05,22,19,01,16.90
2007,05,22,19,02,16.90
2007,05,22,19,03,16.90
2007,05,22,19,04,16.80
2007,05,22,19,05,16.80
2007,05,22,19,06,16.80
2007,05,22,19,07,16.80
2007,05,22,19,08,16.80
2007,05,22,19,09,16.80
2007,05,22,19,10,16.80
2007,05,22,19,11,16.80
2007,05,22,19,12,16.80
2007,05,22,19,13,16.80
2007,05,22,19,14,16.80
2007,05,22,19,15,16.70
2007,05,22,19,16,16.70
2007,05,22,19,17,16.60
2007,05,22,19,18,16.60
2007,05,22,19,19,16.60
2007,05,22,19,20,16.60
2007,05,22,19,21,16.60
2007,05,22,19,22,16.60
2007,05,22,19,23,16.40
2007,05,22,19,24,16.40
2007,05,22,19,25,16.40
2007,05,22,19,26,16.40
2007,05,22,19,27,16.40
2007,05,22,19,28,16.40
2007,05,22,19,29,16.40
2007,05,22,19,30,16.30
2007,05,22,19,31,16.20
2007,05,22,19,32,16.20
2007,05,22,19,33,16.10
2007,05,22,19,34,16.10
2007,05,22,19,35,16.10
2007,05,22,19,36,16.10
2007,05,22,19,37,15.90
2007,05,22,19,38,15.90
2007,05,22,19,39,15.90
2007,05,22,19,40,15.90
2007,05,22,19,41,15.90
2007,05,22,19,42,15.80
2007,05,22,19,43,15.80
2007,05,22,19,44,15.80
2007,05,22,19,45,15.70
2007,05,22,19,46,15.70
2007,05,22,19,47,15.60
2007,05,22,19,48,15.60
2007,05,22,19,49,15.60
2007,05,22,19,50,15.50
2007,05,22,19,51,15.50
2007,05,22,19,52,15.40
2007,05,22,19,53,15.40
2007,05,22,19,54,15.40
2007,05,22,19,55,15.40
2007,05,22,19,56,15.30
2007,05,22,19,57,15.30
2007,05,22,19,58,15.30
2007,05,22,19,59,15.20
2007,05,22,20,00,15.20
2007,05,22,20,01,15.10
2007,05,22,20,02,15.10
2007,05,22,20,03,15.10
2007,05,22,20,04,15.10
2007,05,22,20,05,15.10
2007,05,22,20,06,15.00
2007,05,22,20,07,15.00
2007,05,22,20,08,15.00
2007,05,22,20,09,15.00
2007,05,22,20,10,14.90
2007,05,22,20,11,14.90
2007,05,22,20,12,14.80
2007,05,22,20,13,14.80
2007,05,22,20,14,14.80
2007,05,22,20,15,14.80
2007,05,22,20,16,14.70
2007,05,22,20,17,14.70
2007,05,22,20,18,14.60